Year,Month,Day,Hour,Minute,Value (Times are PST for temperature in C)
2018,08,03,00,00,16.30
2018,08,03,00,01,16.30
2018,08,03,00,02,16.30
2018,08,03,00,03,16.30
2018,08,03,00,04,16.30
2018,08,03,00,05,16.30
2018,08,03,00,06,16.30
2018,08,03,00,07,16.30
2018,08,03,00,08,16.30
2018,08,03,00,09,16.30
2018,08,03,00,10,16.30
2018,08,03,00,11,16.30
2018,08,03,00,12,16.30
2018,08,03,00,13,16.30
2018,08,03,00,14,16.30
2018,08,03,00,15,16.30
2018,08,03,00,16,16.30
2018,08,03,00,17,16.30
2018,08,03,00,18,16.30
2018,08,03,00,19,16.30
2018,08,03,00,20,16.30
2018,08,03,00,21,16.40
2018,08,03,00,22,16.40
2018,08,03,00,23,16.40
2018,08,03,00,24,16.40
2018,08,03,00,25,16.40
2018,08,03,00,26,16.40
2018,08,03,00,27,16.40
2018,08,03,00,28,16.40
2018,08,03,00,29,16.40
2018,08,03,00,30,16.40
2018,08,03,00,31,16.40
2018,08,03,00,32,16.40
2018,08,03,00,33,16.40
2018,08,03,00,34,16.50
2018,08,03,00,35,16.50
2018,08,03,00,36,16.50
2018,08,03,00,37,16.50
2018,08,03,00,38,16.50
2018,08,03,00,39,16.40
2018,08,03,00,40,16.50
2018,08,03,00,41,16.40
2018,08,03,00,42,16.40
2018,08,03,00,43,16.40
2018,08,03,00,44,16.40
2018,08,03,00,45,16.40
2018,08,03,00,46,16.40
2018,08,03,00,47,16.40
2018,08,03,00,48,16.50
2018,08,03,00,49,16.50
2018,08,03,00,50,16.50
2018,08,03,00,51,16.50
2018,08,03,00,52,16.50
2018,08,03,00,53,16.50
2018,08,03,00,54,16.50
2018,08,03,00,55,16.50
2018,08,03,00,56,16.50
2018,08,03,00,57,16.50
2018,08,03,00,58,16.50
2018,08,03,00,59,16.50
2018,08,03,01,00,16.50
2018,08,03,01,01,16.60
2018,08,03,01,02,16.60
2018,08,03,01,03,16.50
2018,08,03,01,04,16.50
2018,08,03,01,05,16.60
2018,08,03,01,06,16.50
2018,08,03,01,07,16.50
2018,08,03,01,08,16.60
2018,08,03,01,09,16.60
2018,08,03,01,10,16.60
2018,08,03,01,11,16.60
2018,08,03,01,12,16.60
2018,08,03,01,13,16.60
2018,08,03,01,14,16.60
2018,08,03,01,15,16.60
2018,08,03,01,16,16.50
2018,08,03,01,17,16.60
2018,08,03,01,18,16.60
2018,08,03,01,19,16.60
2018,08,03,01,20,16.50
2018,08,03,01,21,16.50
2018,08,03,01,22,16.50
2018,08,03,01,23,16.50
2018,08,03,01,24,16.60
2018,08,03,01,25,16.60
2018,08,03,01,26,16.60
2018,08,03,01,27,16.60
2018,08,03,01,28,16.60
2018,08,03,01,29,16.60
2018,08,03,01,30,16.60
2018,08,03,01,31,16.60
2018,08,03,01,32,16.60
2018,08,03,01,33,16.60
2018,08,03,01,34,16.60
2018,08,03,01,35,16.50
2018,08,03,01,36,16.50
2018,08,03,01,37,16.50
2018,08,03,01,38,16.50
2018,08,03,01,39,16.50
2018,08,03,01,40,16.50
2018,08,03,01,41,16.50
2018,08,03,01,42,16.50
2018,08,03,01,43,16.50
2018,08,03,01,44,16.50
2018,08,03,01,45,16.50
2018,08,03,01,46,16.50
2018,08,03,01,47,16.50
2018,08,03,01,48,16.50
2018,08,03,01,49,16.50
2018,08,03,01,50,16.50
2018,08,03,01,51,16.50
2018,08,03,01,52,16.50
2018,08,03,01,53,16.60
2018,08,03,01,54,16.60
2018,08,03,01,55,16.60
2018,08,03,01,56,16.60
2018,08,03,01,57,16.60
2018,08,03,01,58,16.60
2018,08,03,01,59,16.60
2018,08,03,02,00,16.60
2018,08,03,02,01,16.60
2018,08,03,02,02,16.60
2018,08,03,02,03,16.70
2018,08,03,02,04,16.70
2018,08,03,02,05,16.70
2018,08,03,02,06,16.70
2018,08,03,02,07,16.60
2018,08,03,02,08,16.60
2018,08,03,02,09,16.60
2018,08,03,02,10,16.60
2018,08,03,02,11,16.60
2018,08,03,02,12,16.60
2018,08,03,02,13,16.60
2018,08,03,02,14,16.60
2018,08,03,02,15,16.60
2018,08,03,02,16,16.60
2018,08,03,02,17,16.60
2018,08,03,02,18,16.60
2018,08,03,02,19,16.60
2018,08,03,02,20,16.60
2018,08,03,02,21,16.60
2018,08,03,02,22,16.60
2018,08,03,02,23,16.60
2018,08,03,02,24,16.60
2018,08,03,02,25,16.60
2018,08,03,02,26,16.60
2018,08,03,02,27,16.60
2018,08,03,02,28,16.60
2018,08,03,02,29,16.50
2018,08,03,02,30,16.50
2018,08,03,02,31,16.50
2018,08,03,02,32,16.50
2018,08,03,02,33,16.50
2018,08,03,02,34,16.50
2018,08,03,02,35,16.50
2018,08,03,02,36,16.50
2018,08,03,02,37,16.50
2018,08,03,02,38,16.50
2018,08,03,02,39,16.40
2018,08,03,02,40,16.40
2018,08,03,02,41,16.40
2018,08,03,02,42,16.40
2018,08,03,02,43,16.40
2018,08,03,02,44,16.40
2018,08,03,02,45,16.40
2018,08,03,02,46,16.40
2018,08,03,02,47,16.40
2018,08,03,02,48,16.40
2018,08,03,02,49,16.40
2018,08,03,02,50,16.30
2018,08,03,02,51,16.30
2018,08,03,02,52,16.30
2018,08,03,02,53,16.30
2018,08,03,02,54,16.30
2018,08,03,02,55,16.30
2018,08,03,02,56,16.30
2018,08,03,02,57,16.30
2018,08,03,02,58,16.30
2018,08,03,02,59,16.30
2018,08,03,03,00,16.30
2018,08,03,03,01,16.30
2018,08,03,03,02,16.30
2018,08,03,03,03,16.20
2018,08,03,03,04,16.20
2018,08,03,03,05,16.20
2018,08,03,03,06,16.20
2018,08,03,03,07,16.20
2018,08,03,03,08,16.20
2018,08,03,03,09,16.20
2018,08,03,03,10,16.20
2018,08,03,03,11,16.20
2018,08,03,03,12,16.20
2018,08,03,03,13,16.20
2018,08,03,03,14,16.20
2018,08,03,03,15,16.20
2018,08,03,03,16,16.20
2018,08,03,03,17,16.20
2018,08,03,03,18,16.20
2018,08,03,03,19,16.20
2018,08,03,03,20,16.20
2018,08,03,03,21,16.20
2018,08,03,03,22,16.20
2018,08,03,03,23,16.10
2018,08,03,03,24,16.20
2018,08,03,03,25,16.10
2018,08,03,03,26,16.10
2018,08,03,03,27,16.10
2018,08,03,03,28,16.10
2018,08,03,03,29,16.10
2018,08,03,03,30,16.10
2018,08,03,03,31,16.10
2018,08,03,03,32,16.10
2018,08,03,03,33,16.10
2018,08,03,03,34,16.10
2018,08,03,03,35,16.10
2018,08,03,03,36,16.10
2018,08,03,03,37,16.10
2018,08,03,03,38,16.10
2018,08,03,03,39,16.10
2018,08,03,03,40,16.10
2018,08,03,03,41,16.10
2018,08,03,03,42,16.10
2018,08,03,03,43,16.10
2018,08,03,03,44,16.10
2018,08,03,03,45,16.10
2018,08,03,03,46,16.10
2018,08,03,03,47,16.10
2018,08,03,03,48,16.10
2018,08,03,03,49,16.10
2018,08,03,03,50,16.10
2018,08,03,03,51,16.10
2018,08,03,03,52,16.10
2018,08,03,03,53,16.10
2018,08,03,03,54,16.10
2018,08,03,03,55,16.10
2018,08,03,03,56,16.10
2018,08,03,03,57,16.10
2018,08,03,03,58,16.10
2018,08,03,03,59,16.10
2018,08,03,04,00,16.10
2018,08,03,04,01,16.10
2018,08,03,04,02,16.10
2018,08,03,04,03,16.10
2018,08,03,04,04,16.10
2018,08,03,04,05,16.10
2018,08,03,04,06,16.10
2018,08,03,04,07,16.10
2018,08,03,04,08,16.10
2018,08,03,04,09,16.10
2018,08,03,04,10,16.20
2018,08,03,04,11,16.10
2018,08,03,04,12,16.20
2018,08,03,04,13,16.10
2018,08,03,04,14,16.20
2018,08,03,04,15,16.20
2018,08,03,04,16,16.10
2018,08,03,04,17,16.10
2018,08,03,04,18,16.10
2018,08,03,04,19,16.10
2018,08,03,04,20,16.10
2018,08,03,04,21,16.10
2018,08,03,04,22,16.10
2018,08,03,04,23,16.10
2018,08,03,04,24,16.10
2018,08,03,04,25,16.10
2018,08,03,04,26,16.10
2018,08,03,04,27,16.10
2018,08,03,04,28,16.10
2018,08,03,04,29,16.10
2018,08,03,04,30,16.10
2018,08,03,04,31,16.10
2018,08,03,04,32,16.10
2018,08,03,04,33,16.10
2018,08,03,04,34,16.10
2018,08,03,04,35,16.10
2018,08,03,04,36,16.10
2018,08,03,04,37,16.10
2018,08,03,04,38,16.10
2018,08,03,04,39,16.10
2018,08,03,04,40,16.10
2018,08,03,04,41,16.10
2018,08,03,04,42,16.10
2018,08,03,04,43,16.10
2018,08,03,04,44,16.10
2018,08,03,04,45,16.10
2018,08,03,04,46,16.10
2018,08,03,04,47,16.10
2018,08,03,04,48,16.10
2018,08,03,04,49,16.10
2018,08,03,04,50,16.10
2018,08,03,04,51,16.10
2018,08,03,04,52,16.10
2018,08,03,04,53,16.10
2018,08,03,04,54,16.10
2018,08,03,04,55,16.10
2018,08,03,04,56,16.10
2018,08,03,04,57,16.10
2018,08,03,04,58,16.10
2018,08,03,04,59,16.10
2018,08,03,05,00,16.10
2018,08,03,05,01,16.10
2018,08,03,05,02,16.10
2018,08,03,05,03,16.10
2018,08,03,05,04,16.10
2018,08,03,05,05,16.10
2018,08,03,05,06,16.10
2018,08,03,05,07,16.10
2018,08,03,05,08,16.10
2018,08,03,05,09,16.10
2018,08,03,05,10,16.10
2018,08,03,05,11,16.10
2018,08,03,05,12,16.10
2018,08,03,05,13,16.10
2018,08,03,05,14,16.10
2018,08,03,05,15,16.10
2018,08,03,05,16,16.10
2018,08,03,05,17,16.10
2018,08,03,05,18,16.20
2018,08,03,05,19,16.10
2018,08,03,05,20,16.10
2018,08,03,05,21,16.20
2018,08,03,05,22,16.20
2018,08,03,05,23,16.10
2018,08,03,05,24,16.10
2018,08,03,05,25,16.10
2018,08,03,05,26,16.10
2018,08,03,05,27,16.20
2018,08,03,05,28,16.10
2018,08,03,05,29,16.10
2018,08,03,05,30,16.10
2018,08,03,05,31,16.10
2018,08,03,05,32,16.10
2018,08,03,05,33,16.10
2018,08,03,05,34,16.10
2018,08,03,05,35,16.10
2018,08,03,05,36,16.10
2018,08,03,05,37,16.10
2018,08,03,05,38,16.10
2018,08,03,05,39,16.10
2018,08,03,05,40,16.10
2018,08,03,05,41,16.10
2018,08,03,05,42,16.10
2018,08,03,05,43,16.20
2018,08,03,05,44,16.10
2018,08,03,05,45,16.10
2018,08,03,05,46,16.20
2018,08,03,05,47,16.10
2018,08,03,05,48,16.10
2018,08,03,05,49,16.10
2018,08,03,05,50,16.10
2018,08,03,05,51,16.10
2018,08,03,05,52,16.20
2018,08,03,05,53,16.10
2018,08,03,05,54,16.10
2018,08,03,05,55,16.10
2018,08,03,05,56,16.10
2018,08,03,05,57,16.10
2018,08,03,05,58,16.10
2018,08,03,05,59,16.10
2018,08,03,06,00,16.10
2018,08,03,06,01,16.10
2018,08,03,06,02,16.10
2018,08,03,06,03,16.10
2018,08,03,06,04,16.10
2018,08,03,06,05,16.10
2018,08,03,06,06,16.10
2018,08,03,06,07,16.10
2018,08,03,06,08,16.10
2018,08,03,06,09,16.10
2018,08,03,06,10,16.10
2018,08,03,06,11,16.10
2018,08,03,06,12,16.10
2018,08,03,06,13,16.10
2018,08,03,06,14,16.10
2018,08,03,06,15,16.10
2018,08,03,06,16,16.10
2018,08,03,06,17,16.10
2018,08,03,06,18,16.10
2018,08,03,06,19,16.20
2018,08,03,06,20,16.20
2018,08,03,06,21,16.10
2018,08,03,06,22,16.10
2018,08,03,06,23,16.20
2018,08,03,06,24,16.20
2018,08,03,06,25,16.20
2018,08,03,06,26,16.20
2018,08,03,06,27,16.20
2018,08,03,06,28,16.20
2018,08,03,06,29,16.20
2018,08,03,06,30,16.20
2018,08,03,06,31,16.20
2018,08,03,06,32,16.20
2018,08,03,06,33,16.20
2018,08,03,06,34,16.20
2018,08,03,06,35,16.20
2018,08,03,06,36,16.20
2018,08,03,06,37,16.20
2018,08,03,06,38,16.20
2018,08,03,06,39,16.30
2018,08,03,06,40,16.30
2018,08,03,06,41,16.30
2018,08,03,06,42,16.30
2018,08,03,06,43,16.30
2018,08,03,06,44,16.30
2018,08,03,06,45,16.30
2018,08,03,06,46,16.30
2018,08,03,06,47,16.30
2018,08,03,06,48,16.30
2018,08,03,06,49,16.30
2018,08,03,06,50,16.30
2018,08,03,06,51,16.30
2018,08,03,06,52,16.30
2018,08,03,06,53,16.30
2018,08,03,06,54,16.30
2018,08,03,06,55,16.30
2018,08,03,06,56,16.40
2018,08,03,06,57,16.40
2018,08,03,06,58,16.40
2018,08,03,06,59,16.40
2018,08,03,07,00,16.40
2018,08,03,07,01,16.40
2018,08,03,07,02,16.40
2018,08,03,07,03,16.40
2018,08,03,07,04,16.40
2018,08,03,07,05,16.50
2018,08,03,07,06,16.50
2018,08,03,07,07,16.50
2018,08,03,07,08,16.50
2018,08,03,07,09,16.50
2018,08,03,07,10,16.50
2018,08,03,07,11,16.60
2018,08,03,07,12,16.60
2018,08,03,07,13,16.60
2018,08,03,07,14,16.60
2018,08,03,07,15,16.60
2018,08,03,07,16,16.60
2018,08,03,07,17,16.70
2018,08,03,07,18,16.70
2018,08,03,07,19,16.70
2018,08,03,07,20,16.80
2018,08,03,07,21,16.80
2018,08,03,07,22,16.80
2018,08,03,07,23,16.90
2018,08,03,07,24,16.90
2018,08,03,07,25,16.90
2018,08,03,07,26,17.00
2018,08,03,07,27,17.00
2018,08,03,07,28,17.00
2018,08,03,07,29,17.00
2018,08,03,07,30,17.10
2018,08,03,07,31,17.10
2018,08,03,07,32,17.10
2018,08,03,07,33,17.10
2018,08,03,07,34,17.20
2018,08,03,07,35,17.20
2018,08,03,07,36,17.20
2018,08,03,07,37,17.20
2018,08,03,07,38,17.20
2018,08,03,07,39,17.30
2018,08,03,07,40,17.30
2018,08,03,07,41,17.30
2018,08,03,07,42,17.30
2018,08,03,07,43,17.30
2018,08,03,07,44,17.40
2018,08,03,07,45,17.40
2018,08,03,07,46,17.40
2018,08,03,07,47,17.50
2018,08,03,07,48,17.50
2018,08,03,07,49,17.60
2018,08,03,07,50,17.60
2018,08,03,07,51,17.60
2018,08,03,07,52,17.70
2018,08,03,07,53,17.70
2018,08,03,07,54,17.70
2018,08,03,07,55,17.80
2018,08,03,07,56,17.80
2018,08,03,07,57,17.80
2018,08,03,07,58,17.80
2018,08,03,07,59,17.80
2018,08,03,08,00,17.90
2018,08,03,08,01,17.90
2018,08,03,08,02,17.90
2018,08,03,08,03,17.90
2018,08,03,08,04,17.90
2018,08,03,08,05,17.90
2018,08,03,08,06,17.90
2018,08,03,08,07,17.90
2018,08,03,08,08,17.90
2018,08,03,08,09,17.90
2018,08,03,08,10,18.00
2018,08,03,08,11,18.10
2018,08,03,08,12,18.10
2018,08,03,08,13,18.20
2018,08,03,08,14,18.20
2018,08,03,08,15,18.30
2018,08,03,08,16,18.30
2018,08,03,08,17,18.30
2018,08,03,08,18,18.30
2018,08,03,08,19,18.30
2018,08,03,08,20,18.30
2018,08,03,08,21,18.30
2018,08,03,08,22,18.40
2018,08,03,08,23,18.40
2018,08,03,08,24,18.50
2018,08,03,08,25,18.60
2018,08,03,08,26,18.60
2018,08,03,08,27,18.60
2018,08,03,08,28,18.70
2018,08,03,08,29,18.70
2018,08,03,08,30,18.70
2018,08,03,08,31,18.80
2018,08,03,08,32,18.80
2018,08,03,08,33,18.80
2018,08,03,08,34,18.80
2018,08,03,08,35,18.70
2018,08,03,08,36,18.70
2018,08,03,08,37,18.60
2018,08,03,08,38,18.60
2018,08,03,08,39,18.60
2018,08,03,08,40,18.60
2018,08,03,08,41,18.60
2018,08,03,08,42,18.70
2018,08,03,08,43,18.70
2018,08,03,08,44,18.70
2018,08,03,08,45,18.70
2018,08,03,08,46,18.70
2018,08,03,08,47,18.80
2018,08,03,08,48,18.80
2018,08,03,08,49,18.80
2018,08,03,08,50,18.80
2018,08,03,08,51,18.90
2018,08,03,08,52,18.90
2018,08,03,08,53,18.90
2018,08,03,08,54,18.90
2018,08,03,08,55,18.80
2018,08,03,08,56,18.80
2018,08,03,08,57,18.80
2018,08,03,08,58,18.80
2018,08,03,08,59,18.90
2018,08,03,09,00,18.90
2018,08,03,09,01,19.00
2018,08,03,09,02,19.00
2018,08,03,09,03,19.10
2018,08,03,09,04,19.20
2018,08,03,09,05,19.30
2018,08,03,09,06,19.30
2018,08,03,09,07,19.30
2018,08,03,09,08,19.30
2018,08,03,09,09,19.30
2018,08,03,09,10,19.30
2018,08,03,09,11,19.20
2018,08,03,09,12,19.20
2018,08,03,09,13,19.10
2018,08,03,09,14,19.10
2018,08,03,09,15,19.00
2018,08,03,09,16,19.10
2018,08,03,09,17,19.10
2018,08,03,09,18,19.10
2018,08,03,09,19,19.20
2018,08,03,09,20,19.10
2018,08,03,09,21,19.10
2018,08,03,09,22,19.10
2018,08,03,09,23,19.20
2018,08,03,09,24,19.10
2018,08,03,09,25,19.10
2018,08,03,09,26,19.10
2018,08,03,09,27,19.10
2018,08,03,09,28,19.10
2018,08,03,09,29,19.10
2018,08,03,09,30,19.10
2018,08,03,09,31,19.10
2018,08,03,09,32,19.10
2018,08,03,09,33,19.00
2018,08,03,09,34,18.90
2018,08,03,09,35,18.80
2018,08,03,09,36,18.80
2018,08,03,09,37,18.80
2018,08,03,09,38,18.80
2018,08,03,09,39,18.90
2018,08,03,09,40,19.00
2018,08,03,09,41,19.10
2018,08,03,09,42,19.10
2018,08,03,09,43,19.00
2018,08,03,09,44,18.90
2018,08,03,09,45,18.90
2018,08,03,09,46,18.90
2018,08,03,09,47,18.90
2018,08,03,09,48,18.90
2018,08,03,09,49,18.90
2018,08,03,09,50,18.90
2018,08,03,09,51,18.90
2018,08,03,09,52,18.80
2018,08,03,09,53,18.80
2018,08,03,09,54,18.70
2018,08,03,09,55,18.70
2018,08,03,09,56,18.60
2018,08,03,09,57,18.60
2018,08,03,09,58,18.60
2018,08,03,09,59,18.60
2018,08,03,10,00,18.60
2018,08,03,10,01,18.60
2018,08,03,10,02,18.60
2018,08,03,10,03,18.60
2018,08,03,10,04,18.60
2018,08,03,10,05,18.70
2018,08,03,10,06,18.70
2018,08,03,10,07,18.70
2018,08,03,10,08,18.70
2018,08,03,10,09,18.70
2018,08,03,10,10,18.70
2018,08,03,10,11,18.70
2018,08,03,10,12,18.80
2018,08,03,10,13,18.80
2018,08,03,10,14,18.90
2018,08,03,10,15,19.00
2018,08,03,10,16,19.10
2018,08,03,10,17,19.20
2018,08,03,10,18,19.20
2018,08,03,10,19,19.20
2018,08,03,10,20,19.30
2018,08,03,10,21,19.30
2018,08,03,10,22,19.40
2018,08,03,10,23,19.40
2018,08,03,10,24,19.50
2018,08,03,10,25,19.60
2018,08,03,10,26,19.70
2018,08,03,10,27,19.80
2018,08,03,10,28,19.80
2018,08,03,10,29,19.70
2018,08,03,10,30,19.70
2018,08,03,10,31,19.70
2018,08,03,10,32,19.70
2018,08,03,10,33,19.70
2018,08,03,10,34,19.70
2018,08,03,10,35,19.80
2018,08,03,10,36,20.00
2018,08,03,10,37,20.20
2018,08,03,10,38,20.30
2018,08,03,10,39,20.50
2018,08,03,10,40,20.60
2018,08,03,10,41,20.70
2018,08,03,10,42,20.70
2018,08,03,10,43,20.70
2018,08,03,10,44,20.70
2018,08,03,10,45,20.60
2018,08,03,10,46,20.60
2018,08,03,10,47,20.60
2018,08,03,10,48,20.50
2018,08,03,10,49,20.50
2018,08,03,10,50,20.50
2018,08,03,10,51,20.40
2018,08,03,10,52,20.40
2018,08,03,10,53,20.30
2018,08,03,10,54,20.30
2018,08,03,10,55,20.20
2018,08,03,10,56,20.30
2018,08,03,10,57,20.30
2018,08,03,10,58,20.40
2018,08,03,10,59,20.50
2018,08,03,11,00,20.60
2018,08,03,11,01,20.60
2018,08,03,11,02,20.60
2018,08,03,11,03,20.60
2018,08,03,11,04,20.60
2018,08,03,11,05,20.70
2018,08,03,11,06,20.80
2018,08,03,11,07,20.80
2018,08,03,11,08,20.90
2018,08,03,11,09,20.90
2018,08,03,11,10,20.80
2018,08,03,11,11,20.70
2018,08,03,11,12,20.60
2018,08,03,11,13,20.50
2018,08,03,11,14,20.50
2018,08,03,11,15,20.40
2018,08,03,11,16,20.40
2018,08,03,11,17,20.30
2018,08,03,11,18,20.40
2018,08,03,11,19,20.30
2018,08,03,11,20,20.30
2018,08,03,11,21,20.40
2018,08,03,11,22,20.60
2018,08,03,11,23,20.70
2018,08,03,11,24,20.80
2018,08,03,11,25,20.80
2018,08,03,11,26,20.80
2018,08,03,11,27,20.80
2018,08,03,11,28,20.80
2018,08,03,11,29,20.80
2018,08,03,11,30,20.80
2018,08,03,11,31,20.80
2018,08,03,11,32,20.80
2018,08,03,11,33,20.80
2018,08,03,11,34,20.80
2018,08,03,11,35,20.80
2018,08,03,11,36,20.80
2018,08,03,11,37,20.70
2018,08,03,11,38,20.70
2018,08,03,11,39,20.60
2018,08,03,11,40,20.60
2018,08,03,11,41,20.50
2018,08,03,11,42,20.50
2018,08,03,11,43,20.50
2018,08,03,11,44,20.60
2018,08,03,11,45,20.70
2018,08,03,11,46,20.70
2018,08,03,11,47,20.70
2018,08,03,11,48,20.50
2018,08,03,11,49,20.50
2018,08,03,11,50,20.40
2018,08,03,11,51,20.30
2018,08,03,11,52,20.30
2018,08,03,11,53,20.30
2018,08,03,11,54,20.40
2018,08,03,11,55,20.60
2018,08,03,11,56,20.80
2018,08,03,11,57,20.90
2018,08,03,11,58,21.00
2018,08,03,11,59,20.90
2018,08,03,12,00,20.90
2018,08,03,12,01,20.90
2018,08,03,12,02,20.90
2018,08,03,12,03,20.90
2018,08,03,12,04,21.00
2018,08,03,12,05,21.00
2018,08,03,12,06,21.00
2018,08,03,12,07,21.00
2018,08,03,12,08,21.00
2018,08,03,12,09,21.10
2018,08,03,12,10,21.20
2018,08,03,12,11,21.20
2018,08,03,12,12,21.20
2018,08,03,12,13,21.20
2018,08,03,12,14,21.10
2018,08,03,12,15,21.10
2018,08,03,12,16,21.00
2018,08,03,12,17,21.00
2018,08,03,12,18,20.90
2018,08,03,12,19,20.90
2018,08,03,12,20,20.90
2018,08,03,12,21,20.90
2018,08,03,12,22,21.00
2018,08,03,12,23,20.90
2018,08,03,12,24,20.80
2018,08,03,12,25,20.70
2018,08,03,12,26,20.70
2018,08,03,12,27,20.60
2018,08,03,12,28,20.60
2018,08,03,12,29,20.60
2018,08,03,12,30,20.60
2018,08,03,12,31,20.70
2018,08,03,12,32,20.70
2018,08,03,12,33,20.70
2018,08,03,12,34,20.80
2018,08,03,12,35,20.70
2018,08,03,12,36,20.60
2018,08,03,12,37,20.60
2018,08,03,12,38,20.50
2018,08,03,12,39,20.50
2018,08,03,12,40,20.50
2018,08,03,12,41,20.60
2018,08,03,12,42,20.60
2018,08,03,12,43,20.60
2018,08,03,12,44,20.60
2018,08,03,12,45,20.60
2018,08,03,12,46,20.50
2018,08,03,12,47,20.50
2018,08,03,12,48,20.50
2018,08,03,12,49,20.70
2018,08,03,12,50,20.70
2018,08,03,12,51,20.70
2018,08,03,12,52,20.70
2018,08,03,12,53,20.80
2018,08,03,12,54,20.80
2018,08,03,12,55,20.70
2018,08,03,12,56,20.60
2018,08,03,12,57,20.60
2018,08,03,12,58,20.50
2018,08,03,12,59,20.40
2018,08,03,13,00,20.40
2018,08,03,13,01,20.40
2018,08,03,13,02,20.50
2018,08,03,13,03,20.60
2018,08,03,13,04,20.70
2018,08,03,13,05,20.60
2018,08,03,13,06,20.60
2018,08,03,13,07,20.60
2018,08,03,13,08,20.70
2018,08,03,13,09,20.70
2018,08,03,13,10,20.60
2018,08,03,13,11,20.70
2018,08,03,13,12,20.80
2018,08,03,13,13,20.90
2018,08,03,13,14,20.80
2018,08,03,13,15,20.90
2018,08,03,13,16,20.90
2018,08,03,13,17,20.80
2018,08,03,13,18,20.80
2018,08,03,13,19,20.90
2018,08,03,13,20,20.90
2018,08,03,13,21,20.90
2018,08,03,13,22,20.90
2018,08,03,13,23,20.90
2018,08,03,13,24,21.00
2018,08,03,13,25,21.00
2018,08,03,13,26,21.00
2018,08,03,13,27,20.90
2018,08,03,13,28,20.90
2018,08,03,13,29,20.90
2018,08,03,13,30,20.90
2018,08,03,13,31,20.90
2018,08,03,13,32,20.80
2018,08,03,13,33,20.70
2018,08,03,13,34,20.60
2018,08,03,13,35,20.60
2018,08,03,13,36,20.60
2018,08,03,13,37,20.50
2018,08,03,13,38,20.60
2018,08,03,13,39,20.60
2018,08,03,13,40,20.70
2018,08,03,13,41,20.80
2018,08,03,13,42,20.80
2018,08,03,13,43,20.90
2018,08,03,13,44,20.90
2018,08,03,13,45,21.00
2018,08,03,13,46,21.10
2018,08,03,13,47,21.20
2018,08,03,13,48,21.20
2018,08,03,13,49,21.20
2018,08,03,13,50,21.20
2018,08,03,13,51,21.20
2018,08,03,13,52,21.20
2018,08,03,13,53,21.20
2018,08,03,13,54,21.20
2018,08,03,13,55,21.20
2018,08,03,13,56,21.10
2018,08,03,13,57,21.10
2018,08,03,13,58,21.20
2018,08,03,13,59,21.20
2018,08,03,14,00,21.20
2018,08,03,14,01,21.20
2018,08,03,14,02,21.30
2018,08,03,14,03,21.40
2018,08,03,14,04,21.60
2018,08,03,14,05,21.70
2018,08,03,14,06,21.80
2018,08,03,14,07,21.90
2018,08,03,14,08,21.80
2018,08,03,14,09,21.70
2018,08,03,14,10,21.70
2018,08,03,14,11,21.70
2018,08,03,14,12,21.70
2018,08,03,14,13,21.70
2018,08,03,14,14,21.80
2018,08,03,14,15,21.80
2018,08,03,14,16,21.80
2018,08,03,14,17,21.80
2018,08,03,14,18,21.70
2018,08,03,14,19,21.60
2018,08,03,14,20,21.60
2018,08,03,14,21,21.60
2018,08,03,14,22,21.50
2018,08,03,14,23,21.40
2018,08,03,14,24,21.40
2018,08,03,14,25,21.40
2018,08,03,14,26,21.30
2018,08,03,14,27,21.30
2018,08,03,14,28,21.40
2018,08,03,14,29,21.40
2018,08,03,14,30,21.50
2018,08,03,14,31,21.60
2018,08,03,14,32,21.50
2018,08,03,14,33,21.50
2018,08,03,14,34,21.60
2018,08,03,14,35,21.60
2018,08,03,14,36,21.60
2018,08,03,14,37,21.70
2018,08,03,14,38,21.60
2018,08,03,14,39,21.50
2018,08,03,14,40,21.40
2018,08,03,14,41,21.40
2018,08,03,14,42,21.30
2018,08,03,14,43,21.20
2018,08,03,14,44,21.30
2018,08,03,14,45,21.30
2018,08,03,14,46,21.40
2018,08,03,14,47,21.40
2018,08,03,14,48,21.40
2018,08,03,14,49,21.50
2018,08,03,14,50,21.50
2018,08,03,14,51,21.70
2018,08,03,14,52,21.80
2018,08,03,14,53,21.80
2018,08,03,14,54,21.80
2018,08,03,14,55,21.80
2018,08,03,14,56,21.80
2018,08,03,14,57,21.80
2018,08,03,14,58,21.80
2018,08,03,14,59,21.80
2018,08,03,15,00,21.80
2018,08,03,15,01,21.90
2018,08,03,15,02,22.00
2018,08,03,15,03,22.10
2018,08,03,15,04,22.00
2018,08,03,15,05,21.90
2018,08,03,15,06,21.80
2018,08,03,15,07,21.80
2018,08,03,15,08,21.90
2018,08,03,15,09,21.90
2018,08,03,15,10,21.90
2018,08,03,15,11,21.80
2018,08,03,15,12,21.70
2018,08,03,15,13,21.70
2018,08,03,15,14,21.80
2018,08,03,15,15,21.90
2018,08,03,15,16,22.00
2018,08,03,15,17,22.20
2018,08,03,15,18,22.30
2018,08,03,15,19,22.20
2018,08,03,15,20,22.10
2018,08,03,15,21,22.00
2018,08,03,15,22,21.90
2018,08,03,15,23,21.70
2018,08,03,15,24,21.60
2018,08,03,15,25,21.60
2018,08,03,15,26,21.70
2018,08,03,15,27,21.80
2018,08,03,15,28,21.80
2018,08,03,15,29,21.80
2018,08,03,15,30,21.80
2018,08,03,15,31,21.70
2018,08,03,15,32,21.60
2018,08,03,15,33,21.50
2018,08,03,15,34,21.40
2018,08,03,15,35,21.20
2018,08,03,15,36,21.10
2018,08,03,15,37,21.10
2018,08,03,15,38,21.10
2018,08,03,15,39,21.10
2018,08,03,15,40,21.10
2018,08,03,15,41,20.90
2018,08,03,15,42,20.80
2018,08,03,15,43,20.70
2018,08,03,15,44,20.60
2018,08,03,15,45,20.60
2018,08,03,15,46,20.70
2018,08,03,15,47,20.70
2018,08,03,15,48,20.70
2018,08,03,15,49,20.70
2018,08,03,15,50,20.70
2018,08,03,15,51,20.70
2018,08,03,15,52,20.60
2018,08,03,15,53,20.70
2018,08,03,15,54,20.70
2018,08,03,15,55,20.80
2018,08,03,15,56,20.80
2018,08,03,15,57,20.90
2018,08,03,15,58,20.90
2018,08,03,15,59,20.90
2018,08,03,16,00,20.90
2018,08,03,16,01,20.90
2018,08,03,16,02,20.90
2018,08,03,16,03,20.90
2018,08,03,16,04,20.80
2018,08,03,16,05,20.80
2018,08,03,16,06,20.80
2018,08,03,16,07,20.80
2018,08,03,16,08,20.80
2018,08,03,16,09,20.80
2018,08,03,16,10,20.80
2018,08,03,16,11,20.70
2018,08,03,16,12,20.70
2018,08,03,16,13,20.70
2018,08,03,16,14,20.60
2018,08,03,16,15,20.60
2018,08,03,16,16,20.60
2018,08,03,16,17,20.60
2018,08,03,16,18,20.70
2018,08,03,16,19,20.70
2018,08,03,16,20,20.70
2018,08,03,16,21,20.80
2018,08,03,16,22,20.70
2018,08,03,16,23,20.70
2018,08,03,16,24,20.70
2018,08,03,16,25,20.70
2018,08,03,16,26,20.70
2018,08,03,16,27,20.70
2018,08,03,16,28,20.70
2018,08,03,16,29,20.70
2018,08,03,16,30,20.70
2018,08,03,16,31,20.70
2018,08,03,16,32,20.70
2018,08,03,16,33,20.60
2018,08,03,16,34,20.60
2018,08,03,16,35,20.50
2018,08,03,16,36,20.40
2018,08,03,16,37,20.40
2018,08,03,16,38,20.30
2018,08,03,16,39,20.20
2018,08,03,16,40,20.30
2018,08,03,16,41,20.30
2018,08,03,16,42,20.30
2018,08,03,16,43,20.30
2018,08,03,16,44,20.30
2018,08,03,16,45,20.30
2018,08,03,16,46,20.40
2018,08,03,16,47,20.40
2018,08,03,16,48,20.40
2018,08,03,16,49,20.30
2018,08,03,16,50,20.30
2018,08,03,16,51,20.30
2018,08,03,16,52,20.30
2018,08,03,16,53,20.30
2018,08,03,16,54,20.30
2018,08,03,16,55,20.30
2018,08,03,16,56,20.40
2018,08,03,16,57,20.40
2018,08,03,16,58,20.40
2018,08,03,16,59,20.40
2018,08,03,17,00,20.50
2018,08,03,17,01,20.40
2018,08,03,17,02,20.40
2018,08,03,17,03,20.40
2018,08,03,17,04,20.30
2018,08,03,17,05,20.30
2018,08,03,17,06,20.30
2018,08,03,17,07,20.30
2018,08,03,17,08,20.20
2018,08,03,17,09,20.20
2018,08,03,17,10,20.20
2018,08,03,17,11,20.20
2018,08,03,17,12,20.20
2018,08,03,17,13,20.20
2018,08,03,17,14,20.20
2018,08,03,17,15,20.20
2018,08,03,17,16,20.20
2018,08,03,17,17,20.20
2018,08,03,17,18,20.20
2018,08,03,17,19,20.20